Mountain Home, ID

5:02 AM MDT on August 17, 2017 (GMT -0600)
Mountain Home Air Force Base

Weather History for KMUO - November, 2011

Change the Weather History Date:

Monday, November 14, 2011

  Actual Average Record
Temperature  
Mean Temperature 41 °F 39 °F  
Max Temperature 52 °F 49 °F 75 °F (1999)
Min Temperature 30 °F 28 °F 1 °F (1916)
Degree Days  
Heating Degree Days 24 26  
Month to date heating degree days 357 318  
Cooling Degree Days 0 0  
Month to date cooling degree days 0 0  
Moisture  
Dew Point 26 °F    
Average Humidity 54    
Maximum Humidity 85    
Minimum Humidity 31    
Precipitation  
Precipitation 0.00 in 0.05 in 0.77 in (1958)
Month to date precipitation 0.06 0.55  
Sea Level Pressure  
Sea Level Pressure 29.90 in    
Wind  
Wind Speed 8 mph (NNW)    
Max Wind Speed 22 mph    
Max Gust Speed 28 mph    
Visibility 10 miles    
Events      
T = Trace of Precipitation, MM = Missing Value Source: NWS Daily Summary

Daily Weather History Graph

Daily Weather History Graph

Search for Another Location

Airport or City:

Trip Planner

Search our weather history database for the weather conditions in past years. The results will help you decide how hot, cold, wet, or windy it might be!

Date:

Astronomy

Nov. 14, 2011 Rise Set
Actual Time 7:34 AM MST 5:20 PM MST
Civil Twilight 7:03 AM MST 5:51 PM MST
Nautical Twilight 6:29 AM MST 6:25 PM MST
Astronomical Twilight 5:56 AM MST 6:59 PM MST
Moon 8:30 PM MST (11/14) 10:58 AM MST (11/14)
Length of Visible Light 10h 47m
Length of Day
9h 46m
Waning Gibbous, 86% of the Moon is Illuminated
Nov 14
Waning Gibbous
Nov 18
Last Quarter
Nov 24
New
Dec 2
First Quarter
Dec 10
Full

Hourly Weather History & Observations

Time (MST) Temp. Windchill Dew Point Humidity Pressure Visibility Wind Dir Wind Speed Gust Speed Precip Events Conditions
12:55 AM 36.0 °F - 31.8 °F 85% 29.84 in 10.0 mi Calm Calm - N/A   Partly Cloudy
1:55 AM 35.8 °F - 31.6 °F 85% 29.83 in 10.0 mi Calm Calm - N/A   Clear
2:55 AM 35.6 °F 32.8 °F 31.3 °F 84% 29.83 in 10.0 mi East 3.5 mph - N/A   Clear
3:55 AM 34.9 °F 29.0 °F 28.6 °F 78% 29.83 in 10.0 mi NE 6.9 mph - N/A   Clear
4:55 AM 32.9 °F - 25.7 °F 75% 29.84 in 10.0 mi Calm Calm - N/A   Partly Cloudy
5:55 AM 35.8 °F 27.8 °F 26.8 °F 70% 29.85 in 10.0 mi NNW 11.5 mph - N/A   Clear
6:55 AM 35.8 °F 27.8 °F 26.6 °F 69% 29.88 in 10.0 mi NNW 11.5 mph - N/A   Scattered Clouds
7:55 AM 35.4 °F 26.8 °F 25.9 °F 68% 29.91 in 10.0 mi NNW 12.7 mph - N/A   Partly Cloudy
8:55 AM 37.0 °F 30.4 °F 27.3 °F 68% 29.93 in 10.0 mi NNW 9.2 mph - N/A   Clear
9:55 AM 40.5 °F 32.8 °F 27.9 °F 61% 29.94 in 10.0 mi NNW 13.8 mph - N/A   Clear
10:55 AM 46.0 °F 40.6 °F 26.4 °F 46% 29.94 in 10.0 mi North 11.5 mph 20.7 mph N/A   Clear
11:55 AM 48.2 °F - 24.4 °F 39% 29.93 in 10.0 mi NNW 16.1 mph - N/A   Clear
12:55 PM 49.6 °F - 24.1 °F 37% 29.91 in 10.0 mi NW 20.7 mph - N/A   Clear
1:55 PM 50.9 °F - 22.5 °F 33% 29.89 in 10.0 mi NW 16.1 mph - N/A   Clear
2:55 PM 51.6 °F - 21.9 °F 31% 29.88 in 10.0 mi NW 17.3 mph 27.6 mph N/A   Clear
3:55 PM 50.0 °F - 22.6 °F 34% 29.89 in 10.0 mi NNW 21.9 mph - N/A   Mostly Cloudy
4:55 PM 48.7 °F - 22.3 °F 35% 29.91 in 10.0 mi NW 17.3 mph - N/A   Mostly Cloudy
5:55 PM 47.1 °F - 23.5 °F 40% 29.91 in 10.0 mi NNW 10.4 mph - N/A   Mostly Cloudy
6:55 PM 46.2 °F 42.2 °F 23.9 °F 42% 29.92 in 10.0 mi North 8.1 mph - N/A   Overcast
7:55 PM 45.1 °F 39.1 °F 24.1 °F 44% 29.93 in 10.0 mi NW 12.7 mph - N/A   Mostly Cloudy
8:55 PM 46.4 °F 40.7 °F 23.5 °F 41% 29.94 in 10.0 mi WNW 12.7 mph - N/A   Overcast
9:55 PM 45.9 °F 40.0 °F 24.3 °F 43% 29.94 in 10.0 mi WNW 12.7 mph - N/A   Overcast
10:55 PM 45.1 °F 39.1 °F 25.2 °F 46% 29.93 in 10.0 mi NW 12.7 mph - N/A   Overcast
11:55 PM 43.9 °F 38.3 °F 26.6 °F 51% 29.94 in 10.0 mi NNW 10.4 mph - N/A   Overcast